Date String (YYYY-MM-DD hh:mm:ss) UTC,Instrument flags,Ambient pressure (hPa),Sample flow (lpm),Bypass flow (lpm),Sample temperature (°C),Ambient temperature (°C),ASC tube jacket temperature (°C),LED temperature (°C),Box temperature (°C),Sample RH (%),Span deviation,Mass concentration (μg/m³),Mass concentration (μg/m³),Mass concentration (μg/m³)
DateTimeUTC,F1_M11,P_M11,Q1_M11,Q2_M11,T1_M11,T2_M11,T3_M11,T4_M11,T5_M11,U1_M11,ZSPAN_M11,X2_M11,X0_M11,X1_M11
2022-06-30 23:00:00,,0828.4,5.00,0.00,29.5,27.9,00.0,38.2,31.4,22.9,0000.0,0002.60,0005.73,0001.83
2022-06-30 23:01:00,,0828.4,5.00,0.00,29.5,27.5,00.0,38.2,31.3,23.1,0000.0,0002.67,0006.00,0001.83
2022-06-30 23:02:00,,0828.4,5.00,0.00,29.5,27.4,00.0,38.2,31.3,23.5,0000.0,0002.71,0006.05,0001.83
2022-06-30 23:03:00,,0828.5,5.00,0.00,29.4,27.5,00.0,38.2,31.2,23.1,0000.0,0002.78,0006.40,0001.83
2022-06-30 23:04:00,,0828.5,5.01,0.00,29.4,27.6,00.0,38.2,31.2,21.9,0000.0,0002.79,0006.38,0001.83
2022-06-30 23:05:00,,0828.5,5.01,0.00,29.4,27.7,00.0,38.2,31.3,23.0,0000.0,0002.82,0006.38,0001.83
2022-06-30 23:06:00,,0828.5,4.99,0.00,29.4,27.9,00.0,38.2,31.3,23.0,0000.0,0002.83,0006.33,0001.82
2022-06-30 23:07:00,,0828.5,4.99,0.00,29.4,28.0,00.0,38.2,31.3,22.9,0000.0,0002.95,0006.67,0001.83
2022-06-30 23:08:00,,0828.5,5.00,0.00,29.4,28.1,00.0,38.2,31.3,23.3,0000.0,0002.96,0006.58,0001.83
2022-06-30 23:09:00,,0828.5,5.00,0.00,29.4,28.2,00.0,38.2,31.4,24.0,0000.0,0002.96,0006.03,0001.85
2022-06-30 23:10:00,,0828.5,5.00,0.00,29.5,28.3,00.0,38.2,31.4,23.8,0000.0,0002.94,0005.74,0001.86
2022-06-30 23:11:00,,0828.5,5.00,0.00,29.5,28.4,00.0,38.2,31.4,23.4,0000.0,0002.98,0005.59,0001.87
2022-06-30 23:12:00,,0828.3,5.00,0.00,29.5,28.5,00.0,38.2,31.5,23.3,0000.0,0002.98,0005.50,0001.87
2022-06-30 23:13:00,,0828.3,4.99,0.00,29.5,28.5,00.0,38.2,31.5,23.3,0000.0,0003.01,0005.85,0001.86
2022-06-30 23:14:00,,0828.3,5.00,0.00,29.5,28.6,00.0,38.3,31.5,23.5,0000.0,0002.96,0005.85,0001.85
2022-06-30 23:15:00,,0828.3,5.01,0.00,29.6,28.6,00.0,38.3,31.6,23.1,0000.0,0002.95,0005.94,0001.85
2022-06-30 23:16:00,,0828.3,5.00,0.00,29.6,28.3,00.0,38.3,31.5,23.3,0000.0,0002.95,0006.55,0001.86
2022-06-30 23:17:00,,0828.3,5.00,0.00,29.6,27.7,00.0,38.2,31.4,23.3,0000.0,0002.94,0008.01,0001.86
2022-06-30 23:18:00,,0828.2,4.99,0.00,29.5,27.5,00.0,38.2,31.3,23.3,0000.0,0002.89,0007.97,0001.86
2022-06-30 23:19:00,,0828.4,5.00,0.00,29.5,27.5,00.0,38.2,31.3,23.3,0000.0,0002.93,0008.07,0001.87
2022-06-30 23:20:00,,0828.2,5.00,0.00,29.4,27.6,00.0,38.2,31.3,23.4,0000.0,0002.93,0008.20,0001.86
2022-06-30 23:21:00,,0828.3,5.01,0.00,29.4,27.7,00.0,38.2,31.3,23.1,0000.0,0002.92,0008.21,0001.85
2022-06-30 23:22:00,,0828.1,5.01,0.00,29.4,27.8,00.0,38.2,31.3,23.0,0000.0,0002.90,0008.19,0001.86
2022-06-30 23:23:00,,0828.1,5.00,0.00,29.4,27.9,00.0,38.2,31.3,23.1,0000.0,0002.89,0008.15,0001.86
2022-06-30 23:24:00,,0828.1,5.00,0.00,29.4,28.1,00.0,38.2,31.4,23.0,0000.0,0002.86,0007.99,0001.85
2022-06-30 23:25:00,,0828.1,5.00,0.00,29.4,28.2,00.0,38.2,31.4,22.9,0000.0,0002.89,0007.92,0001.87
2022-06-30 23:26:00,,0828.0,4.99,0.00,29.5,28.3,00.0,38.2,31.4,23.1,0000.0,0002.90,0007.89,0001.88
2022-06-30 23:27:00,,0827.9,5.00,0.00,29.5,28.4,00.0,38.2,31.4,23.0,0000.0,0002.92,0007.56,0001.89
2022-06-30 23:28:00,,0827.9,4.98,0.00,29.5,28.4,00.0,38.3,31.5,23.1,0000.0,0002.94,0005.86,0001.90
2022-06-30 23:29:00,,0827.8,5.00,0.00,29.5,28.5,00.0,38.3,31.5,23.2,0000.0,0002.96,0005.94,0001.91
2022-06-30 23:30:00,,0827.9,5.01,0.00,29.6,28.6,00.0,38.3,31.5,22.8,0000.0,0002.98,0005.82,0001.94
2022-06-30 23:31:00,,0827.8,5.00,0.00,29.6,28.6,00.0,38.3,31.6,22.8,0000.0,0003.04,0005.81,0001.95
2022-06-30 23:32:00,,0827.7,5.01,0.00,29.6,28.7,00.0,38.3,31.6,22.0,0000.0,0003.02,0006.65,0001.95
2022-06-30 23:33:00,,0827.7,5.00,0.00,29.6,28.4,00.0,38.3,31.6,21.2,0000.0,0003.02,0006.68,0001.94
2022-06-30 23:34:00,,0827.7,4.99,0.00,29.6,27.7,00.0,38.3,31.4,21.1,0000.0,0003.01,0006.72,0001.96
2022-06-30 23:35:00,,0827.7,5.00,0.00,29.6,27.5,00.0,38.3,31.4,21.0,0000.0,0003.02,0006.90,0001.97
2022-06-30 23:36:00,,0827.7,4.99,0.00,29.5,27.5,00.0,38.3,31.3,21.3,0000.0,0003.01,0006.80,0001.97
2022-06-30 23:37:00,,0827.7,5.00,0.00,29.5,27.6,00.0,38.2,31.3,21.3,0000.0,0003.07,0006.90,0001.97
2022-06-30 23:38:00,,0827.7,5.00,0.00,29.5,27.7,00.0,38.2,31.3,21.5,0000.0,0003.04,0006.85,0001.95
2022-06-30 23:39:00,,0827.8,5.00,0.00,29.4,27.8,00.0,38.2,31.3,21.5,0000.0,0003.02,0006.70,0001.95
2022-06-30 23:40:00,,0827.7,5.01,0.00,29.4,27.9,00.0,38.2,31.3,21.4,0000.0,0003.03,0006.72,0001.94
2022-06-30 23:41:00,,0827.7,5.01,0.00,29.5,28.1,00.0,38.2,31.4,21.2,0000.0,0003.00,0006.70,0001.93
2022-06-30 23:42:00,,0827.7,5.00,0.00,29.5,28.2,00.0,38.2,31.4,21.0,0000.0,0002.97,0007.14,0001.93
2022-06-30 23:43:00,,0827.7,5.00,0.00,29.5,28.3,00.0,38.2,31.4,20.8,0000.0,0002.97,0007.80,0001.92
2022-06-30 23:44:00,,0827.7,5.00,0.00,29.5,28.4,00.0,38.2,31.4,20.5,0000.0,0002.90,0007.80,0001.89
2022-06-30 23:45:00,,0827.7,4.99,0.00,29.5,28.4,00.0,38.3,31.5,20.6,0000.0,0002.91,0007.92,0001.86
2022-06-30 23:46:00,,0827.7,5.00,0.00,29.6,28.5,00.0,38.3,31.5,20.6,0000.0,0002.86,0007.78,0001.85
2022-06-30 23:47:00,,0827.7,5.00,0.00,29.6,28.6,00.0,38.3,31.5,20.8,0000.0,0002.89,0007.87,0001.84
2022-06-30 23:48:00,,0827.7,5.00,0.00,29.6,28.6,00.0,38.3,31.6,21.0,0000.0,0002.81,0007.84,0001.82
2022-06-30 23:49:00,,0827.6,5.00,0.00,29.6,28.4,00.0,38.3,31.5,20.8,0000.0,0002.78,0007.97,0001.82
2022-06-30 23:50:00,,0827.6,5.00,0.00,29.6,27.7,00.0,38.3,31.4,20.6,0000.0,0002.80,0008.05,0001.80
2022-06-30 23:51:00,,0827.6,5.01,0.00,29.6,27.5,00.0,38.2,31.4,20.6,0000.0,0002.78,0008.06,0001.78
2022-06-30 23:52:00,,0827.6,5.01,0.00,29.5,27.5,00.0,38.2,31.3,20.2,0000.0,0002.78,0008.08,0001.75
2022-06-30 23:53:00,,0827.6,5.00,0.00,29.5,27.6,00.0,38.2,31.3,19.8,0000.0,0002.75,0007.52,0001.73
2022-06-30 23:54:00,,0827.5,5.00,0.00,29.4,27.7,00.0,38.2,31.3,19.8,0000.0,0002.72,0006.23,0001.72
2022-06-30 23:55:00,,0827.5,5.00,0.00,29.4,27.8,00.0,38.2,31.3,19.9,0000.0,0002.73,0005.85,0001.72
2022-06-30 23:56:00,,0827.7,5.00,0.00,29.4,27.9,00.0,38.2,31.3,19.7,0000.0,0002.74,0005.80,0001.73
2022-06-30 23:57:00,,0827.6,4.99,0.00,29.5,28.1,00.0,38.2,31.4,19.7,0000.0,0002.74,0005.71,0001.71
2022-06-30 23:58:00,,0827.5,5.01,0.00,29.5,28.2,00.0,38.2,31.4,20.0,0000.0,0002.72,0005.76,0001.70
2022-06-30 23:59:00,,0827.5,5.00,0.00,29.5,28.3,00.0,38.2,31.4,20.0,0000.0,0002.73,0005.72,0001.69
